Wind_Speed
10 9 9 9 9 9 10 10 10 10 10 11 12 11 9 8 10 11 10 12 13 9 8 10 11 12 13 12 12 12 12 12 12 12 12 12 12 12 13 15 15 15 16 15 17 17 12 13 16 16 15 17 17 17 18 18 18 19 18 18 20 18 14 17 25 26 22 18 14 10 8 14 24 26 27 30 27 20 18 17 18 20 22 23 13 10 22
10 11 11 11 10 10 10 9 10 10 10 11 10 9 8 8 9 10 12 13 11 7 10 12 11 12 13 12 12 12 12 12 12 12 13 13 12 13 14 15 15 16 17 16 17 18 14 13 16 17 16 17 16 16 17 17 17 18 18 19 20 15 12 16 17 17 17 14 10 10 15 21 23 24 29 32 31 28 24 20 16 16 20 20 12 12 24
11 11 11 11 10 10 10 10 9 9 9 9 8 8 8 8 8 10 13 13 8 7 12 13 11 12 11 11 13 12 12 12 12 12 13 13 13 13 15 16 16 17 17 16 17 18 16 14 16 17 16 16 16 16 16 16 16 16 17 19 19 17 18 15 9 8 10 11 11 16 24 29 27 29 33 33 33 31 25 17 11 12 16 18 17 20 28
11 11 10 10 10 9 9 8 8 7 8 7 7 7 7 7 8 9 11 12 9 10 14 13 12 11 10 11 14 13 12 13 12 12 13 14 14 14 15 16 16 17 17 17 17 18 17 16 17 17 16 16 16 16 17 16 15 16 17 19 19 21 22 18 11 11 14 19 22 22 24 27 30 34 32 29 29 29 26 18 13 14 17 20 24 26 31
11 10 10 10 9 9 9 8 7 8 7 6 7 8 6 7 10 9 9 11 12 13 15 14 13 12 10 12 15 14 13 13 12 13 13 14 14 14 15 16 17 18 19 18 18 19 17 16 17 17 16 17 16 16 17 15 15 16 17 18 20 23 24 22 20 20 23 27 26 24 23 25 32 35 29 25 26 27 28 23 18 18 16 19 29 33 34
12 12 12 13 13 13 13 12 11 10 10 10 12 12 10 11 14 14 13 13 14 15 17 16 15 13 12 14 15 13 13 12 12 13 13 13 14 14 15 16 17 18 19 19 19 20 18 18 18 17 17 17 16 16 16 15 15 16 16 18 21 21 22 26 28 30 32 29 24 24 26 28 33 30 23 26 29 28 30 26 18 16 17 22 34 40 40
16 17 19 19 19 19 18 17 17 16 17 18 16 15 16 18 18 18 17 17 17 17 17 17 15 14 13 14 14 13 12 12 12 12 12 12 13 14 14 15 16 17 18 18 19 19 20 21 20 19 18 17 16 17 15 14 16 16 16 18 19 20 23 27 30 35 37 30 25 27 30 32 29 18 15 26 30 26 29 26 17 17 25 32 38 41 45
21 22 23 23 23 23 22 21 21 21 22 21 17 16 19 19 19 18 17 18 19 18 17 16 13 13 14 13 13 12 12 12 12 11 12 12 13 13 14 15 15 16 17 17 17 17 19 21 21 20 18 16 16 16 15 15 16 16 17 18 18 20 25 27 30 36 36 30 26 29 32 30 20 8 14 28 27 23 26 24 20 25 34 39 39 40 46
23 23 24 23 23 24 23 21 21 23 23 19 16 18 19 17 19 18 15 16 18 17 16 15 12 12 14 13 13 12 12 12 12 12 12 13 13 13 14 14 14 15 16 16 16 17 17 17 18 18 17 16 16 15 15 16 17 17 18 18 19 22 25 28 30 33 35 32 30 32 31 22 11 9 21 28 24 23 24 21 25 32 36 38 39 41 44
23 23 23 22 22 22 22 20 20 21 20 16 16 18 18 17 19 17 13 14 17 16 15 14 11 13 14 13 13 13 12 12 12 12 13 13 14 14 14 15 15 15 16 17 17 17 17 16 15 14 13 14 13 12 13 15 17 18 19 18 20 22 24 27 26 27 33 34 32 35 28 12 8 16 24 25 23 25 26 25 30 35 35 36 39 40 40
22 21 21 21 20 20 20 19 18 18 17 17 17 18 17 16 18 17 13 13 16 15 14 14 13 14 15 15 15 14 14 14 13 13 13 14 15 15 14 15 15 16 17 17 18 17 17 16 15 14 13 13 12 10 11 14 15 17 18 19 21 22 22 25 22 22 30 33 33 34 20 7 14 24 23 22 25 28 30 32 33 33 33 37 41 42 39
19 19 20 20 19 19 18 18 17 16 16 17 17 17 17 15 16 15 13 13 16 15 14 15 16 16 17 17 16 16 16 16 15 15 15 15 16 16 15 15 16 17 17 19 18 18 18 18 17 16 14 15 15 11 10 15 16 17 19 20 22 22 22 24 22 23 29 30 26 18 10 15 27 26 21 23 26 27 31 36 36 34 34 38 43 41 35
18 19 19 18 17 17 16 16 16 16 16 17 17 16 16 16 15 14 14 14 16 15 14 16 17 17 18 18 17 17 17 17 17 16 16 16 16 16 16 17 18 18 18 20 20 20 21 20 20 20 18 19 20 16 13 17 19 19 20 20 23 24 22 23 24 24 24 21 12 7 17 34 36 24 22 27 26 25 32 40 42 39 37 41 40 33 28
18 17 17 16 15 15 15 15 16 16 16 16 16 15 16 16 15 15 15 15 15 15 15 16 17 18 18 18 18 17 18 18 17 16 16 16 17 17 17 17 18 19 19 20 21 22 23 24 24 25 23 23 24 21 18 20 22 22 22 23 26 25 22 23 23 19 17 17 18 20 26 33 29 22 24 27 26 28 32 39 46 47 43 37 30 25 31
16 16 15 15 15 15 15 15 16 16 16 15 15 16 16 17 16 16 17 16 15 15 16 16 17 18 18 18 18 18 17 17 17 16 16 17 17 17 17 17 18 19 20 21 22 23 25 25 25 25 24 23 23 22 22 24 26 26 26 27 29 27 26 24 19 18 19 18 19 19 15 19 27 30 29 28 29 33 34 38 48 48 36 25 24 31 44
15 15 14 14 15 15 15 15 15 16 16 16 16 16 17 17 17 17 18 16 15 16 16 16 17 18 18 17 17 17 17 16 16 16 17 17 18 18 17 18 20 21 21 22 23 24 25 25 24 24 22 21 22 24 25 26 28 29 29 31 32 30 30 26 21 24 24 18 14 11 9 19 37 41 33 28 30 37 38 36 36 30 21 25 38 48 55
14 14 14 14 14 15 15 15 16 16 16 16 16 16 17 17 17 17 17 16 15 15 16 15 16 17 17 17 17 16 16 17 17 18 18 18 18 19 18 18 21 22 22 23 24 25 25 25 25 25 23 23 23 24 24 26 28 31 31 32 32 31 30 28 25 27 25 20 18 16 19 31 43 37 27 29 38 43 36 22 18 22 29 42 55 57 54
13 14 14 14 14 15 15 15 16 16 16 17 16 16 17 17 16 17 16 15 15 15 15 15 16 17 18 17 17 17 17 18 18 19 19 18 19 21 19 19 23 23 22 24 25 25 25 25 25 26 25 26 26 24 24 27 28 30 32 31 31 32 30 28 28 29 27 22 20 24 32 38 35 25 27 39 46 41 26 19 28 42 49 53 55 53 50
13 13 13 14 14 14 15 15 15 15 16 16 16 15 16 16 16 16 16 15 15 15 15 16 17 18 18 18 17 17 18 18 18 19 20 19 20 21 19 20 23 23 22 24 25 25 26 26 27 27 26 28 28 27 29 31 30 32 33 30 29 30 28 28 29 27 26 24 22 26 31 30 26 30 41 47 43 33 29 35 45 49 49 49 48 48 48
12 12 12 12 13 13 14 14 15 15 15 16 16 15 16 16 16 15 15 15 14 14 15 16 17 18 18 17 17 17 17 18 18 19 19 19 20 20 20 21 23 23 23 25 26 26 27 28 29 27 26 28 30 30 33 35 34 34 32 30 31 31 27 26 25 22 23 24 19 16 20 27 36 44 46 41 37 36 39 44 45 43 44 46 47 49 52
10 10 10 11 11 12 13 14 14 14 14 15 16 15 15 15 15 15 15 15 14 14 14 16 16 17 17 16 16 17 18 18 18 18 18 18 20 21 20 21 22 23 24 26 27 27 28 30 30 28 28 31 32 32 33 36 37 36 33 32 35 34 28 26 26 24 24 24 21 21 30 39 43 42 38 36 36 37 39 40 40 41 45 48 50 53 55
7 8 8 9 10 11 12 12 13 14 14 14 15 15 15 15 15 14 14 14 14 12 13 14 15 16 16 16 16 17 17 17 17 18 17 18 20 20 20 20 22 24 25 26 27 28 28 30 31 31 33 33 33 33 33 35 37 37 35 34 36 37 36 35 35 33 31 33 36 37 40 41 37 33 34 35 34 35 37 40 43 47 49 51 51 51 50
5 6 6 7 8 9 11 11 12 13 13 13 13 14 14 14 14 13 13 13 13 11 11 13 15 15 16 16 15 16 17 16 17 17 18 18 19 20 21 22 23 25 26 27 28 29 29 30 31 32 34 34 33 35 35 35 37 38 37 38 39 41 41 41 40 39 37 40 42 39 37 37 36 35 37 38 39 43 46 47 49 49 48 47 47 46 46
4 5 6 7 8 9 10 11 12 12 13 13 13 13 13 13 13 12 12 12 12 10 10 12 14 15 16 16 15 16 17 17 17 18 18 20 21 22 23 24 25 27 28 29 30 31 31 31 31 32 35 35 34 34 35 35 36 38 40 42 42 41 41 42 42 40 38 39 39 38 40 42 40 41 46 48 50 54 55 53 50 47 46 47 48 50 52
4 6 7 9 10 10 11 11 12 12 12 12 12 12 13 12 12 12 11 11 12 10 10 12 14 14 16 16 15 16 18 17 17 18 19 21 23 23 24 26 27 29 31 31 32 32 32 32 31 33 35 36 34 35 35 34 36 39 41 42 41 40 39 38 37 37 36 36 38 42 46 46 45 49 54 55 54 56 56 54 52 50 52 54 56 57 60
5 7 9 10 11 12 12 12 13 13 13 13 12 12 12 12 12 11 11 12 12 11 10 12 13 14 16 16 15 17 18 18 18 19 21 23 24 25 26 27 29 31 33 33 34 33 33 33 33 33 34 34 35 36 36 36 38 41 40 39 39 39 35 32 35 40 42 41 44 50 54 55 56 57 56 55 56 57 56 55 55 57 60 62 63 66 70
7 8 10 10 11 12 13 14 14 15 14 14 13 13 13 12 12 12 13 13 13 12 12 13 14 15 16 16 16 18 19 18 19 20 22 24 25 26 27 29 31 33 34 35 35 34 34 35 34 33 33 33 35 38 38 39 40 40 37 38 38 37 35 36 40 43 42 42 45 48 50 52 52 51 51 52 54 56 58 60 62 63 66 69 72 74 76
8 9 10 10 11 12 13 14 15 15 15 15 14 14 13 13 13 13 14 14 13 13 13 14 15 16 17 17 17 18 18 19 20 21 23 25 26 27 29 32 33 34 35 36 36 36 36 36 35 33 32 33 35 38 40 40 39 37 35 37 37 35 35 38 38 37 37 39 40 41 43 46 49 50 52 54 56 59 62 65 67 68 70 72 73 72 71
8 9 10 10 11 12 13 14 15 15 16 16 15 14 14 14 13 14 14 14 14 14 15 16 17 17 18 18 18 18 18 19 21 23 24 25 27 29 31 33 34 35 36 36 38 38 37 36 35 34 33 33 35 38 39 39 37 34 35 38 37 35 37 38 37 36 37 39 41 43 46 50 52 54 57 60 62 64 67 69 70 70 70 70 69 68 67
8 9 10 11 12 12 13 14 15 16 16 16 16 16 15 14 14 15 15 15 15 16 17 17 18 18 19 18 18 18 19 20 22 24 25 26 28 31 33 34 35 36 37 37 38 38 37 36 36 35 34 33 34 37 39 39 36 35 37 40 41 42 44 43 40 39 40 43 46 50 53 56 59 62 64 66 69 70 71 71 70 69 68 68 66 65 66
10 11 11 12 12 13 14 15 16 17 17 17 17 17 16 16 16 16 15 15 16 17 18 18 19 19 18 18 18 19 20 21 23 24 26 28 30 32 34 35 35 37 38 38 38 38 38 38 37 36 35 33 34 36 38 38 37 37 40 43 44 46 47 46 44 43 44 48 52 55 57 61 65 68 70 72 73 73 71 69 67 67 68 68 66 64 64
11 12 12 13 14 15 16 17 17 17 17 17 18 18 18 17 17 16 16 17 17 18 18 19 18 18 17 17 18 19 21 22 23 24 27 30 33 34 34 35 36 36 37 37 38 39 40 39 37 37 36 34 35 36 37 36 36 38 41 43 44 46 47 47 47 48 49 52 57 61 64 66 69 72 74 74 73 72 71 70 69 68 68 68 67 66 65
12 13 14 15 16 17 18 18 17 17 18 18 18 18 18 18 17 18 18 18 18 18 18 18 18 17 17 18 19 20 22 23 25 27 29 31 34 36 36 37 38 37 37 37 38 40 40 39 37 37 36 35 36 36 35 33 35 38 40 40 42 44 45 46 48 49 52 54 59 64 70 73 73 73 73 73 73 73 72 72 72 70 69 69 69 68 67
13 14 15 17 18 18 18 18 18 19 19 19 19 19 19 18 18 18 18 18 18 19 18 18 17 16 16 17 19 21 24 26 29 31 33 33 35 38 39 40 40 40 39 40 40 41 40 38 37 37 38 38 37 35 32 32 35 37 38 39 40 42 45 47 49 52 55 58 62 67 72 75 75 75 76 76 75 73 72 72 71 69 67 67 66 65 63
14 15 17 18 19 19 19 19 19 20 19 20 20 20 20 19 18 18 17 17 18 18 17 17 16 16 17 19 21 23 26 28 30 33 35 36 37 39 40 42 43 42 42 42 42 41 39 37 37 39 39 38 36 33 32 34 37 37 38 40 41 44 47 51 54 57 61 65 70 73 74 73 75 77 77 75 72 70 69 69 68 65 61 60 60 60 59
15 17 18 19 19 19 19 20 20 20 20 20 21 21 20 20 19 18 18 17 16 16 16 16 16 16 18 22 25 27 29 30 32 34 36 38 39 40 41 42 44 44 44 44 43 41 38 36 37 39 39 36 35 34 34 35 36 37 39 41 43 45 50 57 62 66 70 73 74 75 75 75 75 75 74 72 69 67 66 65 63 60 59 58 59 59 59
17 18 19 19 19 19 20 20 21 21 21 21 21 21 21 20 20 19 17 15 15 15 16 16 17 18 20 22 26 30 32 33 35 37 37 39 41 41 40 42 44 45 45 44 42 39 36 36 38 39 38 36 35 35 35 35 36 38 40 42 45 50 56 62 68 73 76 78 78 78 77 76 74 72 72 71 68 65 64 64 61 58 57 56 56 57 58
18 18 19 19 19 20 20 20 21 21 21 21 21 21 21 20 18 17 15 15 15 16 17 17 18 20 21 22 25 29 33 35 37 38 39 40 41 41 40 42 44 44 44 43 39 35 35 38 40 39 38 36 35 35 35 36 37 38 41 44 49 55 63 70 75 77 79 80 79 77 75 72 71 70 71 69 65 61 61 60 58 55 53 53 53 54 55
19 19 19 19 19 20 20 21 21 21 21 21 21 21 19 18 16 15 15 16 17 17 17 18 20 22 25 26 26 29 33 36 38 40 40 40 39 40 42 42 41 42 42 40 35 33 36 41 41 38 37 37 35 35 36 38 39 41 43 47 52 60 68 74 77 76 75 74 73 71 68 65 66 67 65 62 60 59 58 57 55 54 53 53 53 53 53
19 19 19 20 20 20 21 21 21 21 21 21 20 18 16 16 16 16 17 17 18 18 19 20 22 24 26 29 31 32 34 36 38 40 41 39 38 39 41 41 39 40 39 35 32 35 38 40 40 37 35 35 35 36 38 40 42 43 46 52 60 68 73 73 70 67 66 65 65 64 62 60 61 61 60 58 58 59 58 57 56 56 56 56 55 54 54
20 20 20 20 21 21 21 20 20 20 20 19 17 15 14 15 16 17 18 19 18 19 21 23 24 25 27 31 34 35 36 37 38 39 41 40 39 40 41 40 37 35 32 31 35 39 39 38 38 35 33 33 36 38 41 42 44 49 56 63 68 70 69 65 62 61 62 63 63 62 61 60 60 60 61 60 60 61 61 61 61 60 60 59 57 56 57
20 20 21 20 20 21 20 20 19 19 17 15 14 13 14 15 16 18 19 19 19 21 24 25 26 28 30 33 35 36 37 38 38 38 40 40 40 40 41 39 35 31 31 35 40 40 37 36 35 33 33 35 38 39 42 46 53 61 67 69 67 65 62 61 60 60 61 62 63 62 62 62 62 62 62 62 62 63 63 63 64 64 63 61 60 59 59
21 21 21 20 20 20 19 19 18 16 14 13 13 13 14 15 17 18 19 19 21 23 26 27 27 29 31 33 35 36 37 37 37 38 39 38 38 38 38 37 33 32 36 40 39 37 36 36 34 33 35 38 40 43 49 57 64 68 68 65 63 61 60 59 61 62 62 62 62 62 63 64 64 64 64 63 63 65 65 64 64 65 64 62 61 60 60
21 21 21 20 19 19 19 17 16 15 13 12 14 15 15 16 18 19 19 21 23 25 27 29 30 31 33 35 37 37 37 37 37 37 36 36 36 36 34 34 34 37 40 39 37 35 36 35 33 34 39 44 48 54 62 66 67 67 65 63 61 60 59 60 61 63 63 62 63 64 65 66 67 67 66 66 66 67 67 66 65 65 63 61 60 60 59
21 20 20 19 19 18 17 15 14 14 14 14 15 16 17 18 19 19 20 22 24 26 28 30 31 33 34 36 37 37 37 37 37 35 34 35 36 34 33 34 37 38 37 35 35 36 35 34 36 42 49 54 60 65 67 66 65 64 63 62 60 60 60 62 63 63 64 65 66 67 68 69 70 70 70 69 68 67 67 66 65 64 62 60 60 59 58
20 20 20 19 18 17 16 14 14 14 15 16 17 18 18 18 18 19 21 23 25 28 29 31 32 34 35 36 37 37 36 36 35 33 32 33 34 35 35 36 36 33 31 32 34 35 35 37 44 53 59 63 66 67 65 64 64 62 61 61 61 62 62 63 63 64 65 67 68 69 71 71 72 72 71 71 70 67 65 64 63 62 60 59 58 57 55
20 19 19 18 18 17 16 15 15 16 17 18 19 19 18 18 19 20 23 25 27 29 31 31 32 34 36 36 36 36 35 34 34 32 31 32 34 35 35 33 32 30 31 33 36 37 39 45 54 60 64 65 66 65 64 63 62 61 60 61 63 63 63 64 64 66 67 69 70 72 73 73 74 74 73 73 71 69 66 63 61 58 57 56 54 53 52
19 18 18 17 17 17 17 17 17 17 18 19 19 19 18 19 20 22 24 26 28 30 32 33 34 35 35 35 35 36 35 33 32 32 31 32 32 32 31 31 33 36 37 36 37 42 49 55 60 63 64 64 64 63 62 62 61 61 62 63 64 65 65 66 67 68 70 71 72 73 75 76 77 77 76 76 74 70 66 62 58 55 52 51 50 50 50
19 18 17 18 18 18 18 18 18 18 19 19 19 19 20 20 22 24 26 27 29 31 33 34 35 35 35 35 35 35 34 31 31 32 32 30 29 28 29 32 37 41 42 42 45 51 57 60 61 62 63 63 62 61 60 60 61 62 63 64 66 67 67 68 70 71 72 73 74 75 77 78 79 79 78 77 74 69 64 59 55 52 51 50 49 49 49
19 18 18 18 18 18 18 19 18 19 19 20 20 20 21 21 23 25 27 28 30 32 33 34 34 34 34 35 34 33 32 32 33 33 32 30 28 28 31 35 39 43 47 51 54 57 60 60 60 61 62 62 61 59 60 61 62 64 65 67 68 68 69 70 71 72 73 74 75 77 79 80 80 79 77 74 70 66 61 55 52 51 51 50 49 48 48
19 18 18 17 18 18 18 19 19 20 21 21 21 21 22 23 24 26 28 29 31 31 32 33 34 33 33 33 33 32 32 33 33 33 31 30 30 31 35 40 45 49 52 55 56 57 59 59 60 61 61 61 60 59 60 62 64 66 68 69 69 70 70 71 71 73 74 75 77 79 81 80 78 75 71 67 62 59 57 54 52 51 50 50 49 49 50
19 19 18 18 17 17 18 19 19 20 21 21 22 22 22 24 25 27 28 30 31 32 32 33 32 32 32 32 32 31 31 31 33 34 34 34 34 35 39 44 48 52 54 55 55 56 57 58 58 59 59 60 60 61 62 64 66 68 69 70 70 70 71 71 72 74 76 78 80 81 80 77 73 68 64 60 56 54 54 55 54 51 50 51 53 53 54
Wind_Direction
24 24 24 28 30 30 34 34 37 43 42 44 48 42 35 37 51 62 62 56 53 50 55 58 56 61 65 65 63 61 56 50 46 39 35 34 31 29 25 22 22 21 20 19 18 20 22 14 12 10 4 359 355 353 354 352 352 351 348 347 346 344 336 324 327 335 339 335 340 348 333 333 339 341 341 336 329 320 305 294 295 293 283 285 286 253 286
18 18 16 17 20 21 24 25 28 33 34 37 41 38 30 32 49 59 58 56 53 46 53 55 54 59 61 60 59 55 50 47 43 39 35 33 32 28 24 22 21 19 18 17 15 15 17 12 7 4 359 356 355 353 352 353 352 351 348 344 344 345 337 328 325 333 339 335 340 345 333 332 333 332 332 329 325 321 312 301 289 275 274 280 275 261 283
18 18 16 14 15 16 19 21 23 26 29 32 35 37 31 28 44 61 61 56 49 51 58 56 53 56 57 59 59 53 50 47 42 39 34 31 30 25 22 20 16 15 14 12 12 11 9 7 2 358 355 353 354 352 350 351 350 350 347 342 342 339 334 332 322 321 331 327 330 334 329 328 329 329 329 326 322 318 311 303 284 269 282 281 267 270 289
20 20 19 17 16 16 18 21 24 29 31 30 33 37 33 31 48 69 71 63 56 65 69 62 56 59 59 62 62 55 50 46 41 37 32 28 25 21 19 16 12 12 10 6 7 6 3 0 357 356 354 351 352 350 348 348 348 348 345 341 340 337 335 337 326 315 319 318 323 333 331 325 326 329 329 328 326 321 312 302 281 281 296 291 284 288 297
34 33 32 32 31 31 32 34 39 41 38 37 43 47 47 55 66 77 82 75 69 73 74 67 62 64 63 65 63 55 50 47 40 35 30 25 22 17 14 12 10 9 6 3 2 359 358 358 356 356 354 350 349 347 345 345 346 346 344 341 339 335 335 339 330 321 325 326 329 339 336 326 323 324 327 334 335 324 314 309 305 306 296 286 302 311 307
56 56 57 56 55 55 56 57 61 62 65 69 69 69 76 82 82 82 85 86 80 75 72 66 63 62 60 63 62 55 50 46 38 34 28 22 20 17 12 9 7 6 3 360 356 354 354 356 355 355 351 347 347 345 342 341 343 345 344 340 338 333 333 337 331 324 327 332 337 341 336 328 324 322 327 337 333 322 319 322 326 316 284 284 312 319 312
75 76 75 73 71 71 72 74 78 79 79 79 78 79 82 85 84 82 82 83 79 75 71 68 64 61 59 62 62 57 52 45 38 33 27 20 19 14 10 7 5 4 0 356 355 354 352 350 349 349 348 346 344 343 340 339 342 344 342 340 339 335 333 336 331 326 331 340 344 341 337 333 330 323 329 334 327 317 318 322 325 316 299 303 316 316 311
87 85 83 81 79 79 79 79 81 79 76 77 78 78 77 78 79 77 74 73 73 72 70 68 65 62 58 58 59 57 51 45 37 28 24 20 16 11 8 7 3 359 356 354 354 354 349 345 341 341 344 344 343 343 341 339 340 341 341 341 340 336 333 335 333 329 337 348 343 335 336 333 328 317 327 330 324 315 315 314 313 310 305 308 313 310 312
89 87 84 81 79 77 74 71 71 72 73 73 71 70 68 66 69 67 56 59 67 67 66 64 60 57 55 52 53 50 44 42 33 23 20 16 11 8 5 4 1 356 354 354 353 351 348 343 339 337 340 341 341 339 336 337 338 339 340 339 340 337 333 337 335 328 334 344 337 334 340 334 311 316 327 327 322 315 312 307 307 309 308 309 310 310 314
89 87 84 81 76 73 71 66 63 68 72 66 56 59 61 55 58 58 42 46 63 65 62 61 52 48 49 45 44 42 36 34 28 18 15 11 7 5 1 0 358 353 354 355 352 351 349 346 343 339 338 339 336 330 334 337 334 336 339 337 338 339 332 334 333 321 327 339 336 336 343 340 321 330 327 325 327 323 316 309 310 313 311 309 311 315 319
90 87 83 78 73 68 66 63 58 60 64 60 49 51 55 50 53 56 39 38 61 64 56 54 46 41 42 37 34 32 27 24 20 14 10 7 4 2 359 358 355 352 355 355 352 351 351 351 349 344 344 344 339 331 336 339 336 336 338 333 335 338 330 329 325 311 318 333 336 335 337 328 327 330 326 328 333 328 319 313 312 313 310 311 316 319 317
88 84 78 73 68 63 60 57 54 50 50 54 48 44 49 49 50 54 39 35 57 63 51 47 43 38 37 32 27 25 21 18 15 11 7 4 3 360 358 358 355 355 356 354 353 353 352 353 354 352 351 350 348 344 339 341 341 338 336 333 333 333 327 323 319 308 312 325 336 340 328 321 329 333 334 336 334 324 316 312 313 315 312 314 317 314 310
84 80 74 70 65 61 57 53 52 47 44 49 47 40 44 46 47 50 41 36 51 57 48 44 41 36 34 30 25 21 18 16 13 9 6 4 3 1 359 359 357 357 358 356 355 355 354 356 358 357 355 352 353 354 344 341 343 340 338 336 332 330 327 321 317 311 310 316 325 308 307 322 332 339 341 338 332 321 314 311 316 319 317 314 312 307 306
81 75 70 65 59 56 54 51 50 47 43 46 46 40 42 44 43 44 41 37 43 48 45 41 39 35 31 28 25 21 18 16 13 9 6 5 5 3 0 1 360 359 360 359 358 357 358 358 358 358 355 352 353 351 344 341 342 340 340 337 333 330 325 319 315 310 305 303 302 300 308 321 332 340 341 339 333 326 318 312 315 320 320 314 307 300 303
75 69 63 58 54 51 51 50 48 47 43 44 45 42 41 42 38 37 39 35 33 40 42 38 37 35 29 26 24 21 18 16 12 10 8 5 6 4 0 1 1 359 1 1 360 0 0 359 358 357 353 349 347 341 338 338 339 339 339 336 333 328 322 318 309 301 300 297 299 307 309 313 323 331 333 331 330 331 326 314 314 318 319 311 302 302 306
69 63 57 53 52 51 50 49 47 46 42 39 41 40 36 36 33 33 38 34 28 35 41 36 33 32 27 25 23 19 17 14 10 10 8 5 5 3 359 360 0 360 1 1 360 360 359 359 357 353 347 343 338 332 331 333 334 336 337 334 331 326 321 317 304 296 298 290 285 290 270 296 319 329 327 322 326 330 326 315 312 314 311 308 309 309 308
66 60 55 51 49 48 48 45 42 42 38 35 37 35 32 32 31 31 37 35 27 33 38 33 30 29 25 23 22 18 14 11 8 8 7 4 3 0 357 357 358 359 359 359 358 358 357 357 353 347 342 338 333 329 328 328 329 331 332 331 329 324 320 315 306 301 298 286 279 278 279 303 321 327 321 320 327 327 322 312 306 304 302 307 310 310 310
66 61 54 50 46 43 42 40 37 37 34 31 33 33 30 30 30 30 36 34 26 29 33 30 27 26 23 21 20 16 11 8 7 5 3 2 1 359 357 355 357 359 359 358 357 355 355 355 349 342 337 334 332 328 324 323 323 326 328 327 325 321 318 313 307 304 300 288 276 280 294 313 327 326 319 324 327 324 315 300 303 306 306 309 311 310 311
66 60 52 47 43 39 37 36 33 33 30 27 28 28 25 26 27 28 30 29 26 27 29 28 26 25 22 19 16 12 8 6 4 2 1 360 359 357 355 354 357 358 357 355 355 353 352 351 346 340 333 330 329 325 322 321 321 323 325 325 321 317 314 310 307 306 304 296 283 284 300 318 327 321 321 324 324 321 314 307 306 307 307 308 306 303 304
62 56 48 41 37 35 33 31 29 27 25 22 20 20 19 19 22 24 23 23 24 25 24 25 25 22 19 17 13 8 4 2 0 359 357 356 354 354 354 355 355 355 353 353 352 352 349 346 342 337 330 326 323 321 321 322 321 323 324 321 318 315 308 306 309 308 306 302 290 285 301 314 319 320 323 325 323 318 311 305 302 302 303 303 300 299 302
58 50 41 34 31 30 26 25 23 20 18 15 12 11 12 13 16 19 16 15 19 21 20 21 22 19 17 14 9 3 0 358 356 354 353 352 351 351 354 355 352 351 352 351 349 349 346 341 337 332 326 324 320 318 320 319 320 326 326 319 317 316 310 307 310 311 307 297 288 291 303 313 322 327 324 319 313 306 301 300 302 303 304 303 302 302 303
53 42 33 27 24 22 18 16 14 12 10 9 6 5 5 4 7 9 7 6 11 14 14 17 17 15 12 8 4 359 355 352 350 349 348 349 349 348 350 350 348 348 350 347 345 344 341 337 333 327 325 324 319 318 319 314 314 322 324 318 316 317 315 312 311 313 311 301 298 308 316 320 325 323 311 304 301 297 297 301 305 306 305 304 304 303 302
41 27 20 16 14 13 10 8 5 3 2 1 0 360 357 355 358 0 358 359 4 5 6 11 12 9 5 1 357 353 349 345 344 344 343 343 344 343 342 342 343 344 344 342 340 339 335 333 330 325 323 323 319 317 318 314 314 319 321 319 319 318 317 316 313 315 313 304 305 314 316 310 307 302 296 295 296 298 301 305 308 309 308 306 306 306 306
15 5 2 1 1 0 359 357 356 355 354 353 352 350 347 347 349 351 350 352 355 356 359 3 3 360 356 352 347 346 343 339 337 337 336 337 337 336 336 337 338 338 339 337 336 335 332 331 329 324 323 323 320 316 316 315 315 315 316 318 320 317 315 314 312 311 310 307 308 309 303 299 300 298 297 298 300 302 307 310 312 313 312 312 312 312 313
351 348 346 346 346 347 346 346 347 346 345 345 344 342 340 339 340 342 343 343 343 343 349 355 353 349 346 343 338 338 337 332 330 331 331 331 332 332 333 335 334 335 336 334 333 333 330 329 328 325 324 323 320 318 317 314 312 312 312 314 314 310 309 311 307 304 304 305 302 298 294 294 296 297 301 306 309 311 312 313 314 315 315 315 316 316 317
339 337 336 335 336 336 336 336 337 337 337 337 337 336 336 336 335 333 332 332 332 333 338 344 343 338 336 335 331 329 329 327 326 327 327 327 329 329 330 333 333 333 333 331 331 331 329 328 327 326 325 323 320 318 319 316 313 312 310 308 306 304 303 303 300 300 302 302 298 296 297 297 297 299 303 307 309 311 312 313 315 317 317 318 318 319 320
331 329 328 328 328 329 329 330 330 330 330 331 332 334 334 332 328 325 324 325 327 328 329 333 334 330 328 327 324 323 324 323 322 323 323 325 327 328 330 332 332 331 330 329 329 330 328 327 328 327 326 324 320 317 318 318 316 313 308 304 304 303 300 301 303 304 306 305 303 304 309 309 308 310 312 313 315 318 319 319 320 321 321 323 324 323 324
329 327 326 326 327 327 327 326 326 325 326 326 326 327 327 325 321 319 318 319 321 323 324 327 327 323 321 320 319 318 318 317 318 319 321 324 327 328 330 331 330 329 329 329 328 329 328 327 328 328 328 324 319 317 318 319 316 311 305 302 302 300 298 302 307 308 307 305 304 307 312 314 314 316 318 320 323 325 324 325 326 326 326 326 326 326 327
329 329 330 330 330 329 327 326 325 325 324 322 321 320 320 318 316 314 314 315 316 319 321 323 322 319 317 316 314 314 315 316 317 319 321 325 327 328 328 329 328 328 328 328 327 327 327 327 327 328 328 324 317 314 315 317 313 306 302 300 298 295 296 301 305 307 307 307 308 311 313 315 317 319 321 323 326 327 327 327 327 327 327 328 328 328 330
332 334 335 334 333 331 330 328 327 324 321 319 319 318 316 314 313 312 312 314 316 318 320 321 319 317 316 314 311 312 314 316 317 319 323 325 326 326 326 327 327 327 327 327 326 325 325 327 327 327 327 323 317 312 312 313 309 302 299 298 295 293 295 298 301 306 310 313 315 317 318 321 323 325 325 325 326 327 327 327 327 328 329 329 329 329 328
335 336 336 335 334 333 331 328 325 323 320 319 319 317 315 315 315 314 313 315 317 318 319 319 317 317 315 312 311 313 316 317 319 321 322 323 323 324 325 325 326 326 326 326 326 325 326 328 328 327 327 324 316 311 312 311 307 301 299 299 296 295 295 295 297 302 307 313 316 317 317 321 324 326 325 325 326 327 328 328 329 329 329 328 327 325 324
334 333 332 333 333 332 329 326 323 321 321 320 319 317 315 315 316 315 315 317 318 318 317 316 316 316 313 310 312 314 316 317 318 319 320 321 321 323 325 325 326 327 327 327 327 327 329 330 328 327 327 323 317 314 314 310 303 300 299 298 296 294 294 294 296 299 304 312 318 321 321 322 324 327 327 328 329 329 330 328 327 327 326 324 323 322 322
328 329 331 332 331 328 325 322 321 322 322 320 318 315 314 313 314 315 316 317 316 315 315 314 314 314 312 311 314 316 316 316 316 317 320 322 323 324 326 327 328 328 328 329 329 329 330 331 328 327 327 326 321 318 314 307 301 299 297 294 293 293 293 295 298 302 306 311 318 323 325 326 327 328 328 328 328 327 326 325 325 324 323 322 322 322 321
326 328 329 329 326 324 323 323 324 324 323 321 318 316 315 315 315 315 315 315 314 314 314 314 314 315 314 314 314 315 316 317 319 321 324 327 328 328 328 329 330 330 330 331 332 332 332 331 329 328 329 329 325 318 311 303 299 297 293 290 290 292 294 296 299 303 307 311 316 321 324 325 326 326 326 325 325 324 323 322 322 322 321 321 320 320 319
324 326 326 324 322 322 323 324 325 325 323 321 319 318 318 317 317 316 315 315 315 316 316 316 317 318 318 316 314 315 318 321 323 326 328 329 330 330 330 330 331 331 331 332 334 334 333 333 331 329 330 328 323 316 308 301 297 294 291 291 295 298 303 308 311 313 315 317 321 324 326 326 325 324 323 323 322 322 321 321 321 320 319 318 318 319 319
323 323 321 319 319 322 324 325 325 324 323 321 320 320 320 319 318 318 318 317 318 318 320 321 321 322 322 321 319 320 323 325 327 329 331 331 331 331 331 331 331 331 331 333 334 334 333 333 331 329 328 325 319 313 306 299 295 293 293 295 300 308 315 320 323 324 323 323 324 325 325 323 322 321 321 321 321 321 321 321 320 320 319 319 319 320 320
319 318 316 317 320 323 325 325 325 323 323 322 322 321 320 319 319 319 320 320 321 323 323 323 323 324 324 324 322 323 326 328 330 331 333 333 332 332 332 332 331 330 330 332 333 333 333 332 329 327 326 322 317 311 304 297 294 294 296 300 307 315 320 324 326 326 326 324 323 322 321 320 321 322 323 323 324 323 323 322 322 323 323 322 321 322 322
315 315 316 319 322 324 324 324 324 323 323 323 322 320 319 319 320 321 323 324 325 325 324 324 324 323 323 325 326 327 328 330 331 331 333 334 333 332 332 332 331 329 329 330 331 332 331 330 329 326 323 319 315 308 301 297 295 298 302 308 314 320 323 324 325 325 324 322 321 320 320 322 324 325 325 326 326 325 325 325 326 326 325 325 325 326 326
313 315 318 320 322 323 324 324 324 323 323 322 321 320 319 320 322 323 325 326 325 325 325 325 325 324 324 327 331 332 331 331 331 331 333 335 333 331 331 331 329 327 326 327 330 332 330 328 326 324 319 316 312 305 300 299 299 301 305 310 315 319 320 320 320 321 321 320 320 322 324 325 326 327 328 328 327 327 328 328 329 329 330 331 331 331 330
313 316 319 322 323 324 324 324 323 322 321 321 321 320 321 323 325 326 326 327 327 327 327 325 325 327 328 329 332 333 333 332 331 330 331 334 333 330 328 328 327 325 324 326 329 330 326 323 322 321 316 311 307 303 299 299 300 303 307 311 314 316 317 318 320 322 324 326 327 328 329 329 329 330 331 331 330 330 331 332 333 334 335 334 333 332 332
314 318 321 323 324 323 323 323 322 322 321 321 321 321 323 325 327 327 327 329 329 327 325 323 325 329 331 331 332 333 333 332 331 330 331 333 332 329 327 327 326 323 323 325 327 325 321 319 319 318 312 305 303 301 300 301 304 308 311 313 315 317 319 323 327 330 332 333 334 334 334 334 333 334 334 333 333 333 333 334 335 336 336 334 333 333 333
316 319 322 323 323 323 322 322 321 321 321 321 321 322 324 326 327 328 329 329 327 324 321 322 327 332 333 332 331 332 332 331 331 330 330 331 330 328 327 327 325 322 321 324 324 321 318 318 318 314 307 303 302 301 302 306 311 314 316 317 319 322 326 329 332 334 334 334 335 334 334 335 335 335 334 334 334 334 334 334 335 335 334 333 332 332 332
317 320 321 322 322 321 320 319 319 320 321 320 319 321 323 325 326 328 328 325 322 320 319 322 328 333 332 330 329 330 330 330 330 331 330 330 329 327 325 324 322 320 321 322 321 318 318 319 317 309 304 304 305 305 308 312 316 318 320 321 323 326 329 331 332 333 334 334 335 335 335 335 335 335 335 335 334 333 333 334 334 333 332 331 330 329 330
317 319 321 321 321 319 317 317 318 319 319 317 316 317 320 322 324 325 324 321 319 318 319 323 328 332 331 329 329 330 330 330 330 331 331 329 327 325 322 320 320 320 320 320 318 317 319 320 314 306 304 306 308 310 314 319 321 322 322 323 325 328 331 332 332 333 333 335 336 336 336 336 336 336 335 335 335 333 333 333 332 331 330 328 327 326 327
317 320 320 320 318 316 315 316 316 317 317 315 315 315 318 321 323 323 320 318 316 317 320 325 328 330 330 329 329 329 329 329 330 331 330 327 326 324 321 318 319 319 319 318 317 318 319 316 309 305 307 310 313 316 320 324 324 322 322 324 327 330 332 332 333 333 334 336 336 337 337 336 336 335 335 335 335 334 333 332 331 330 328 326 324 323 324
318 319 319 317 315 313 313 313 314 315 315 313 313 314 316 319 320 318 316 315 315 317 321 326 328 329 329 329 328 328 329 329 330 331 330 326 324 323 321 319 319 317 315 315 316 317 315 310 307 308 312 315 317 320 324 325 323 322 324 326 329 330 332 333 332 333 334 335 336 336 336 336 335 334 334 334 334 334 333 333 331 330 327 325 323 322 322
317 318 318 316 313 310 310 311 311 312 311 310 310 312 314 316 316 315 314 315 317 319 322 325 327 327 328 328 327 327 329 330 330 330 329 325 323 322 321 320 319 316 314 313 314 314 311 309 310 314 317 318 320 323 325 324 323 324 326 327 328 330 332 332 332 333 334 335 335 335 335 335 334 334 333 332 332 332 332 332 331 329 327 325 323 322 322
316 317 316 313 309 306 308 310 310 310 309 308 308 310 313 314 314 314 315 317 318 319 322 325 326 326 327 327 327 329 331 331 329 329 328 325 323 322 321 317 316 316 316 315 312 310 311 312 315 317 318 319 321 324 325 324 324 326 327 328 329 331 332 332 332 333 333 334 334 334 334 333 333 332 331 331 330 330 330 329 329 328 328 326 324 322 323
314 314 312 309 306 306 308 310 310 309 307 307 308 310 312 313 314 315 317 318 318 319 322 324 326 326 327 327 328 330 331 330 327 326 325 325 323 320 316 313 314 316 317 315 311 311 313 316 317 317 318 320 323 325 325 325 326 327 328 328 330 331 332 332 332 332 332 333 333 333 333 332 332 331 330 329 328 328 328 329 329 329 330 329 325 324 325
313 312 310 307 306 306 308 310 309 307 306 307 308 309 311 313 315 316 316 316 317 319 322 323 324 325 326 328 328 329 330 328 325 323 324 325 323 319 314 313 313 314 314 314 314 315 316 317 317 318 320 323 326 327 326 325 325 326 327 329 330 331 332 332 332 331 332 332 332 332 332 331 331 330 329 328 326 326 327 329 329 329 330 330 328 327 328
310 309 307 306 306 307 308 308 307 305 305 306 307 308 311 313 314 314 315 315 316 319 322 323 323 325 326 328 328 328 327 324 323 322 322 322 321 317 314 313 314 314 315 315 316 317 317 317 319 321 324 326 327 327 326 325 326 327 328 330 331 332 332 332 331 331 331 332 332 332 332 331 330 330 329 327 326 325 327 329 330 330 330 332 331 331 330
308 306 305 305 306 307 306 305 304 303 303 304 305 308 311 313 313 313 314 315 317 320 322 322 322 324 326 326 325 325 324 322 321 321 321 320 318 316 315 315 315 316 316 316 317 318 318 319 322 325 327 328 328 327 326 326 328 330 331 332 333 333 333 332 332 331 331 331 332 332 331 331 331 332 330 329 328 328 328 329 331 331 331 333 334 333 331
Height
3187 3187 3186 3186 3186 3185 3185 3184 3184 3183 3183 3183 3182 3182 3182 3182 3181 3180 3180 3180 3179 3179 3179 3179 3178 3178 3177 3177 3177 3177 3177 3176 3176 3175 3175 3174 3173 3172 3171 3170 3169 3168 3167 3166 3165 3163 3163 3162 3160 3159 3157 3156 3154 3152 3150 3148 3146 3144 3142 3140 3138 3136 3133 3130 3126 3123 3121 3119 3118 3118 3117 3117 3117 3114 3112 3110 3108 3108 3107 3105 3102 3099 3094 3090 3089 3083 3072
3188 3188 3187 3187 3186 3186 3186 3185 3185 3185 3184 3184 3183 3183 3183 3182 3182 3181 3181 3181 3181 3181 3180 3180 3179 3179 3179 3179 3178 3178 3178 3177 3176 3176 3175 3174 3173 3173 3172 3171 3169 3169 3168 3166 3165 3164 3163 3162 3160 3158 3157 3155 3154 3152 3150 3148 3146 3143 3141 3139 3138 3136 3134 3131 3128 3123 3120 3117 3116 3117 3116 3115 3115 3113 3110 3106 3104 3104 3102 3099 3099 3096 3089 3087 3086 3079 3070
3189 3189 3188 3187 3187 3187 3186 3186 3186 3185 3185 3185 3184 3184 3184 3183 3183 3182 3182 3182 3182 3182 3181 3181 3181 3180 3180 3180 3179 3179 3178 3178 3177 3176 3175 3174 3174 3173 3172 3171 3170 3169 3168 3167 3166 3164 3163 3162 3160 3158 3156 3155 3153 3151 3149 3147 3145 3143 3141 3139 3137 3135 3133 3132 3130 3128 3124 3120 3119 3120 3117 3114 3113 3110 3107 3103 3101 3100 3098 3097 3098 3094 3088 3086 3083 3075 3068
3190 3189 3188 3188 3187 3187 3187 3186 3186 3186 3186 3185 3185 3184 3184 3184 3183 3183 3183 3183 3183 3182 3182 3182 3181 3181 3181 3180 3180 3179 3179 3178 3177 3177 3176 3175 3174 3173 3172 3171 3170 3169 3168 3167 3166 3164 3163 3161 3160 3158 3156 3154 3152 3150 3149 3147 3145 3143 3141 3139 3136 3134 3132 3131 3130 3129 3127 3124 3122 3122 3119 3115 3111 3106 3103 3101 3099 3097 3096 3096 3096 3093 3089 3083 3078 3074 3068
3190 3190 3189 3188 3188 3188 3187 3187 3187 3187 3186 3186 3186 3185 3185 3185 3184 3184 3184 3184 3184 3183 3183 3183 3182 3182 3182 3181 3180 3180 3179 3179 3178 3177 3176 3175 3175 3174 3173 3171 3170 3169 3168 3167 3165 3164 3163 3161 3159 3157 3155 3154 3152 3150 3148 3146 3144 3142 3140 3138 3136 3133 3130 3129 3127 3126 3125 3123 3121 3120 3117 3113 3108 3103 3100 3099 3098 3095 3093 3093 3092 3091 3088 3080 3073 3072 3067
3192 3191 3190 3190 3189 3188 3188 3188 3188 3188 3188 3187 3186 3186 3186 3186 3185 3185 3185 3185 3185 3185 3184 3184 3184 3183 3183 3182 3181 3181 3180 3179 3179 3178 3177 3176 3175 3174 3173 3171 3170 3169 3168 3166 3164 3163 3161 3160 3158 3157 3155 3153 3151 3149 3147 3145 3144 3142 3140 3138 3135 3132 3130 3128 3125 3122 3121 3121 3119 3116 3114 3109 3104 3101 3099 3097 3095 3092 3090 3089 3087 3087 3084 3076 3070 3068 3063
3193 3193 3192 3192 3191 3190 3190 3190 3190 3190 3189 3188 3188 3189 3188 3187 3187 3187 3187 3187 3186 3186 3186 3185 3185 3185 3184 3183 3182 3182 3181 3180 3179 3178 3177 3176 3175 3174 3173 3172 3170 3169 3168 3166 3164 3162 3160 3158 3156 3155 3154 3152 3150 3148 3146 3144 3143 3141 3139 3137 3135 3132 3129 3127 3124 3119 3116 3116 3114 3112 3109 3105 3100 3098 3097 3095 3092 3089 3087 3085 3084 3082 3077 3071 3068 3064 3059
3195 3195 3195 3194 3194 3193 3193 3193 3192 3192 3191 3190 3191 3191 3190 3190 3189 3189 3190 3189 3188 3188 3187 3187 3186 3186 3185 3184 3183 3182 3181 3180 3180 3179 3178 3177 3175 3174 3173 3172 3170 3169 3167 3166 3164 3162 3160 3158 3156 3154 3153 3151 3149 3147 3145 3144 3142 3141 3139 3137 3135 3132 3129 3127 3123 3117 3113 3112 3111 3108 3105 3101 3097 3095 3094 3091 3088 3086 3084 3082 3081 3078 3073 3069 3067 3062 3056
3198 3198 3197 3197 3197 3196 3196 3196 3195 3193 3193 3194 3195 3193 3192 3192 3191 3191 3191 3190 3189 3189 3189 3188 3188 3187 3186 3185 3184 3183 3182 3181 3180 3179 3178 3177 3176 3174 3173 3172 3171 3169 3167 3166 3164 3162 3161 3159 3156 3154 3152 3150 3149 3147 3145 3143 3142 3140 3138 3136 3134 3132 3128 3125 3123 3116 3111 3110 3108 3105 3102 3098 3094 3093 3091 3088 3086 3083 3081 3079 3077 3074 3071 3067 3064 3060 3054
3200 3200 3200 3199 3199 3198 3198 3198 3197 3196 3196 3197 3197 3194 3194 3194 3192 3192 3192 3192 3191 3191 3190 3190 3189 3188 3187 3186 3185 3184 3183 3182 3181 3180 3179 3177 3176 3175 3173 3172 3171 3169 3167 3165 3164 3162 3160 3158 3156 3154 3152 3150 3149 3147 3145 3144 3142 3140 3138 3136 3134 3132 3128 3125 3123 3117 3110 3108 3105 3101 3098 3095 3092 3091 3089 3086 3083 3080 3077 3076 3074 3071 3069 3065 3061 3057 3053
3202 3202 3202 3201 3201 3201 3200 3200 3200 3199 3199 3199 3198 3196 3196 3195 3194 3193 3194 3193 3192 3192 3191 3191 3190 3189 3188 3187 3186 3185 3184 3182 3181 3180 3179 3178 3177 3175 3174 3172 3171 3169 3167 3165 3163 3162 3160 3158 3156 3154 3152 3150 3149 3147 3146 3144 3142 3140 3138 3135 3133 3131 3128 3124 3123 3118 3110 3105 3103 3098 3095 3093 3091 3089 3087 3083 3080 3077 3074 3072 3070 3068 3066 3062 3057 3053 3050
3204 3204 3204 3204 3203 3203 3202 3202 3202 3201 3200 3199 3199 3198 3197 3196 3195 3195 3195 3194 3193 3193 3192 3191 3190 3189 3189 3187 3186 3185 3184 3183 3182 3181 3180 3179 3177 3176 3174 3173 3171 3169 3167 3165 3163 3162 3160 3158 3156 3154 3152 3150 3148 3147 3145 3144 3142 3140 3137 3135 3132 3129 3126 3123 3120 3116 3109 3104 3102 3099 3094 3091 3089 3087 3084 3081 3078 3076 3072 3068 3066 3066 3063 3058 3054 3049 3046
3206 3206 3206 3206 3205 3205 3204 3204 3203 3203 3202 3200 3200 3199 3198 3198 3197 3196 3196 3195 3193 3193 3193 3192 3191 3190 3189 3188 3187 3186 3185 3184 3183 3182 3181 3179 3178 3176 3174 3173 3171 3169 3167 3165 3163 3162 3160 3158 3156 3154 3152 3150 3148 3146 3145 3143 3141 3138 3136 3133 3130 3127 3125 3121 3117 3114 3109 3105 3104 3101 3094 3088 3087 3085 3082 3079 3077 3075 3070 3063 3060 3061 3059 3054 3049 3046 3042
3208 3208 3208 3207 3207 3206 3206 3205 3204 3204 3203 3202 3201 3201 3200 3199 3198 3198 3197 3196 3194 3194 3194 3192 3191 3191 3190 3189 3188 3187 3186 3185 3184 3182 3181 3179 3178 3176 3174 3173 3171 3169 3168 3166 3164 3162 3160 3157 3155 3153 3151 3149 3147 3145 3143 3142 3139 3137 3134 3132 3129 3125 3123 3120 3116 3113 3109 3106 3103 3098 3091 3085 3084 3082 3080 3078 3075 3073 3069 3060 3054 3055 3054 3049 3045 3042 3038
3210 3209 3209 3209 3208 3208 3207 3206 3205 3205 3204 3203 3202 3202 3201 3200 3199 3198 3197 3196 3195 3194 3194 3193 3192 3191 3190 3189 3188 3187 3186 3185 3184 3183 3181 3180 3178 3177 3175 3173 3172 3170 3168 3166 3164 3162 3160 3157 3155 3153 3150 3148 3146 3143 3142 3140 3137 3135 3132 3129 3127 3124 3121 3119 3116 3112 3109 3106 3102 3097 3092 3086 3082 3080 3079 3076 3073 3071 3068 3060 3051 3049 3048 3045 3041 3038 3033
3211 3211 3211 3210 3209 3209 3208 3207 3207 3206 3205 3204 3203 3203 3202 3201 3200 3199 3197 3197 3196 3195 3194 3194 3193 3192 3191 3190 3189 3188 3187 3186 3184 3183 3181 3180 3178 3177 3175 3174 3172 3170 3168 3167 3165 3163 3160 3158 3156 3154 3151 3149 3146 3143 3140 3138 3135 3132 3130 3127 3124 3121 3118 3117 3114 3109 3107 3106 3103 3098 3092 3084 3080 3080 3077 3074 3071 3068 3065 3058 3051 3047 3045 3042 3038 3034 3029
3212 3212 3212 3211 3211 3210 3209 3209 3208 3207 3206 3205 3204 3203 3203 3201 3201 3199 3198 3198 3197 3196 3195 3194 3193 3193 3192 3191 3190 3188 3187 3186 3184 3183 3181 3180 3179 3177 3176 3174 3172 3171 3169 3167 3165 3163 3161 3158 3156 3153 3151 3148 3146 3142 3139 3136 3133 3130 3127 3124 3121 3118 3116 3114 3111 3107 3104 3104 3100 3096 3089 3081 3079 3078 3075 3071 3069 3065 3061 3055 3049 3045 3044 3039 3034 3030 3025
3213 3213 3213 3212 3212 3211 3210 3210 3209 3208 3207 3206 3205 3204 3203 3202 3201 3200 3199 3198 3197 3196 3195 3195 3194 3193 3192 3191 3190 3189 3187 3186 3184 3183 3182 3180 3179 3177 3176 3174 3172 3171 3169 3167 3165 3162 3160 3158 3155 3152 3149 3146 3144 3141 3137 3135 3132 3129 3126 3123 3120 3116 3114 3111 3108 3105 3103 3101 3097 3091 3084 3079 3077 3076 3073 3070 3065 3062 3059 3053 3046 3042 3040 3036 3030 3025 3020
3214 3214 3214 3213 3213 3212 3211 3210 3209 3209 3208 3207 3206 3205 3204 3202 3201 3200 3199 3199 3198 3197 3196 3195 3194 3193 3192 3191 3189 3188 3187 3185 3184 3183 3181 3180 3178 3177 3176 3174 3172 3170 3168 3166 3164 3161 3159 3157 3154 3151 3147 3144 3142 3139 3136 3133 3131 3128 3125 3123 3119 3115 3112 3109 3106 3103 3100 3098 3094 3088 3081 3078 3076 3074 3071 3067 3063 3059 3056 3051 3044 3039 3034 3030 3025 3020 3015
3215 3214 3214 3214 3213 3212 3211 3211 3210 3209 3208 3207 3206 3205 3204 3203 3202 3201 3200 3199 3198 3197 3196 3195 3194 3193 3191 3190 3189 3187 3186 3185 3183 3182 3180 3179 3178 3177 3175 3173 3171 3169 3167 3165 3162 3160 3158 3155 3153 3150 3146 3143 3140 3138 3134 3131 3129 3127 3125 3122 3118 3115 3111 3108 3105 3103 3099 3095 3092 3087 3080 3077 3075 3072 3069 3066 3063 3058 3051 3043 3038 3034 3028 3023 3019 3015 3011
3215 3215 3215 3214 3213 3213 3212 3211 3210 3209 3208 3207 3206 3205 3204 3203 3202 3201 3200 3199 3197 3196 3195 3194 3193 3192 3190 3189 3188 3186 3185 3184 3182 3181 3180 3178 3177 3175 3174 3172 3170 3168 3166 3163 3161 3159 3157 3154 3151 3149 3146 3142 3139 3136 3133 3128 3126 3125 3124 3120 3117 3114 3111 3108 3105 3103 3100 3094 3089 3085 3081 3077 3075 3072 3068 3064 3059 3052 3043 3036 3032 3029 3024 3019 3015 3011 3007
3216 3215 3215 3214 3214 3213 3212 3211 3210 3209 3208 3207 3206 3205 3204 3202 3202 3200 3200 3198 3197 3196 3195 3194 3193 3191 3190 3188 3187 3185 3184 3183 3181 3180 3179 3178 3176 3175 3173 3171 3169 3167 3165 3163 3160 3158 3156 3153 3150 3146 3143 3140 3137 3134 3132 3128 3123 3122 3121 3119 3114 3111 3110 3107 3103 3101 3098 3091 3085 3082 3079 3075 3073 3069 3064 3058 3051 3044 3040 3035 3030 3025 3020 3015 3010 3005 3000
3216 3216 3215 3215 3214 3213 3212 3211 3210 3209 3208 3207 3206 3204 3203 3202 3201 3200 3199 3198 3196 3195 3194 3193 3192 3191 3189 3188 3186 3185 3183 3182 3181 3179 3178 3177 3175 3174 3172 3170 3168 3166 3164 3161 3159 3157 3154 3151 3148 3144 3140 3138 3134 3131 3129 3126 3122 3119 3117 3115 3112 3109 3107 3103 3099 3096 3092 3086 3083 3081 3076 3071 3068 3063 3057 3051 3046 3041 3036 3032 3027 3021 3016 3011 3006 3000 2996
3216 3215 3215 3214 3213 3212 3211 3210 3209 3208 3207 3206 3205 3204 3203 3202 3200 3199 3198 3197 3195 3194 3193 3192 3191 3189 3188 3186 3185 3183 3182 3181 3180 3179 3177 3176 3174 3172 3170 3168 3166 3164 3162 3159 3157 3155 3151 3149 3146 3142 3138 3136 3133 3129 3126 3123 3120 3116 3113 3111 3108 3106 3103 3099 3095 3090 3086 3082 3079 3076 3070 3066 3062 3056 3049 3045 3041 3035 3031 3026 3022 3017 3012 3007 3002 2997 2992
3216 3215 3214 3213 3212 3211 3210 3209 3208 3207 3206 3205 3204 3203 3202 3201 3200 3198 3197 3196 3194 3193 3192 3191 3190 3188 3186 3185 3184 3182 3181 3180 3179 3177 3176 3174 3172 3170 3168 3167 3164 3161 3159 3157 3154 3152 3149 3146 3144 3140 3136 3133 3130 3127 3124 3121 3117 3114 3110 3108 3105 3101 3098 3095 3091 3087 3084 3080 3074 3069 3065 3062 3059 3052 3044 3039 3033 3028 3025 3022 3018 3013 3008 3003 2998 2993 2987
3216 3215 3214 3213 3211 3210 3209 3208 3207 3206 3205 3204 3203 3202 3201 3200 3199 3197 3196 3194 3193 3192 3191 3190 3189 3187 3185 3184 3183 3181 3180 3179 3177 3176 3174 3172 3171 3169 3167 3165 3162 3159 3157 3154 3152 3150 3147 3144 3142 3138 3135 3132 3127 3124 3122 3119 3115 3111 3108 3105 3101 3097 3093 3090 3085 3081 3078 3074 3067 3060 3056 3054 3052 3047 3041 3036 3030 3025 3020 3017 3013 3008 3003 2997 2992 2988 2983
3215 3214 3213 3212 3211 3209 3208 3207 3206 3205 3204 3203 3202 3201 3200 3199 3197 3196 3194 3193 3192 3191 3190 3189 3188 3186 3184 3183 3182 3180 3179 3177 3176 3174 3172 3170 3169 3167 3165 3162 3160 3157 3155 3152 3149 3147 3144 3141 3139 3137 3134 3130 3125 3121 3118 3115 3112 3108 3104 3100 3096 3092 3088 3085 3080 3075 3072 3067 3061 3055 3049 3045 3043 3041 3037 3032 3028 3022 3016 3011 3007 3002 2997 2991 2985 2980 2977
3214 3213 3212 3211 3210 3209 3208 3206 3205 3204 3203 3202 3201 3200 3199 3197 3196 3195 3193 3192 3191 3190 3189 3188 3186 3185 3183 3182 3180 3179 3177 3176 3174 3173 3171 3169 3167 3165 3163 3160 3158 3155 3152 3149 3146 3144 3141 3138 3136 3134 3132 3128 3122 3117 3114 3112 3108 3104 3099 3095 3091 3088 3084 3080 3076 3072 3068 3063 3059 3055 3050 3043 3039 3036 3032 3028 3024 3018 3011 3006 3001 2995 2991 2985 2979 2973 2968
3213 3212 3212 3211 3210 3208 3207 3206 3204 3203 3202 3201 3200 3198 3197 3196 3195 3193 3192 3191 3190 3189 3188 3187 3185 3183 3182 3180 3179 3177 3176 3174 3173 3171 3170 3168 3166 3163 3161 3159 3156 3153 3150 3147 3144 3141 3139 3136 3134 3131 3129 3125 3119 3114 3111 3109 3106 3101 3096 3092 3089 3085 3081 3078 3073 3069 3064 3060 3055 3051 3047 3041 3036 3032 3027 3022 3018 3012 3005 3000 2995 2990 2985 2979 2973 2967 2961
3213 3212 3211 3210 3209 3208 3206 3205 3204 3202 3201 3199 3198 3197 3196 3194 3193 3192 3191 3190 3189 3188 3186 3185 3183 3182 3180 3179 3177 3176 3175 3173 3171 3169 3168 3166 3164 3162 3159 3157 3154 3151 3148 3145 3142 3138 3136 3134 3131 3129 3126 3123 3117 3112 3108 3106 3104 3099 3094 3090 3087 3083 3078 3074 3070 3065 3060 3055 3050 3046 3041 3036 3030 3026 3021 3017 3012 3006 3000 2994 2989 2983 2978 2972 2966 2961 2956
3212 3211 3210 3209 3208 3207 3206 3204 3203 3201 3200 3198 3197 3195 3194 3193 3192 3191 3189 3189 3187 3186 3185 3183 3182 3180 3178 3177 3176 3174 3173 3171 3169 3168 3166 3163 3162 3160 3157 3155 3152 3149 3145 3143 3140 3136 3133 3131 3128 3125 3123 3120 3115 3110 3106 3104 3101 3097 3092 3088 3084 3079 3074 3070 3066 3062 3056 3050 3045 3040 3037 3032 3026 3019 3014 3010 3006 3000 2993 2988 2982 2977 2971 2967 2962 2958 2953
3211 3210 3209 3208 3207 3206 3205 3203 3202 3200 3199 3197 3196 3194 3193 3191 3190 3189 3188 3187 3186 3184 3183 3181 3180 3178 3177 3175 3174 3173 3171 3169 3168 3166 3164 3162 3159 3157 3155 3152 3149 3146 3143 3140 3136 3133 3130 3127 3124 3121 3118 3116 3112 3107 3104 3100 3096 3092 3087 3083 3079 3075 3070 3066 3062 3058 3053 3047 3040 3033 3028 3025 3021 3014 3007 3002 2998 2993 2987 2982 2977 2973 2968 2963 2958 2954 2949
3210 3209 3208 3207 3206 3205 3203 3202 3201 3199 3197 3196 3194 3193 3192 3190 3189 3188 3186 3185 3184 3182 3181 3179 3178 3177 3175 3174 3172 3171 3169 3168 3166 3164 3162 3160 3156 3153 3150 3148 3145 3142 3139 3136 3133 3130 3126 3124 3120 3117 3115 3112 3108 3104 3100 3096 3092 3087 3083 3078 3074 3070 3066 3062 3058 3053 3049 3044 3038 3031 3024 3018 3015 3011 3005 2999 2994 2989 2984 2978 2973 2968 2962 2957 2951 2946 2941
3209 3208 3207 3206 3205 3203 3202 3200 3199 3197 3196 3194 3193 3191 3190 3189 3188 3186 3185 3183 3182 3180 3179 3177 3176 3175 3174 3172 3171 3169 3167 3165 3163 3160 3158 3156 3153 3149 3145 3142 3140 3137 3134 3132 3129 3126 3122 3120 3116 3113 3111 3108 3105 3101 3097 3092 3088 3084 3079 3075 3071 3066 3061 3058 3054 3049 3044 3039 3036 3031 3024 3016 3010 3005 3000 2995 2990 2985 2980 2974 2968 2961 2955 2950 2945 2940 2934
3208 3207 3206 3205 3203 3202 3200 3198 3197 3195 3194 3192 3191 3190 3188 3187 3186 3185 3183 3182 3180 3178 3177 3176 3175 3174 3172 3171 3169 3167 3165 3163 3161 3158 3155 3152 3149 3146 3142 3138 3135 3131 3129 3127 3125 3121 3118 3116 3113 3109 3107 3104 3101 3098 3094 3089 3084 3080 3076 3071 3067 3062 3057 3052 3048 3043 3039 3034 3029 3024 3019 3013 3006 2999 2994 2988 2983 2978 2973 2967 2962 2956 2950 2944 2939 2935 2929
3207 3205 3204 3203 3202 3200 3198 3196 3195 3193 3192 3190 3189 3188 3186 3185 3184 3183 3181 3180 3178 3177 3176 3175 3173 3172 3170 3168 3165 3163 3162 3160 3158 3156 3153 3149 3145 3142 3139 3134 3131 3127 3124 3122 3120 3117 3115 3113 3110 3106 3104 3101 3097 3094 3090 3085 3081 3077 3072 3068 3064 3059 3054 3048 3043 3037 3033 3029 3024 3018 3013 3007 3002 2995 2989 2983 2977 2972 2966 2960 2955 2950 2944 2939 2934 2929 2923
3206 3205 3203 3202 3200 3198 3196 3195 3193 3191 3190 3188 3187 3185 3184 3183 3182 3181 3179 3178 3177 3176 3174 3173 3172 3170 3169 3167 3164 3161 3159 3157 3154 3152 3149 3146 3141 3138 3135 3131 3127 3123 3120 3118 3117 3114 3112 3110 3107 3103 3100 3097 3094 3090 3086 3082 3077 3073 3069 3065 3061 3056 3051 3045 3040 3033 3027 3022 3018 3013 3007 3002 2996 2989 2982 2976 2971 2966 2960 2953 2948 2944 2939 2934 2928 2923 2917
3205 3204 3202 3200 3198 3197 3195 3193 3191 3190 3188 3186 3185 3183 3182 3181 3180 3179 3178 3177 3176 3175 3173 3172 3170 3168 3167 3166 3164 3161 3157 3155 3152 3149 3146 3143 3139 3135 3132 3129 3124 3120 3117 3115 3114 3112 3109 3106 3103 3100 3097 3094 3091 3087 3083 3079 3075 3071 3067 3063 3058 3053 3048 3042 3036 3030 3022 3015 3010 3005 3000 2994 2988 2982 2976 2970 2964 2959 2954 2948 2944 2939 2934 2929 2924 2918 2912
3203 3202 3200 3199 3197 3195 3193 3192 3190 3188 3186 3185 3183 3182 3181 3179 3178 3177 3177 3176 3174 3173 3172 3170 3168 3166 3165 3164 3163 3161 3157 3153 3149 3146 3144 3141 3137 3132 3129 3126 3122 3118 3114 3112 3111 3109 3106 3102 3099 3096 3093 3090 3087 3083 3079 3076 3073 3069 3065 3061 3056 3051 3046 3041 3035 3030 3023 3015 3007 3001 2996 2989 2983 2977 2971 2965 2959 2953 2948 2943 2938 2934 2928 2923 2918 2912 2907
3202 3200 3199 3197 3195 3194 3192 3190 3188 3186 3185 3183 3182 3180 3179 3178 3177 3176 3175 3175 3173 3172 3170 3168 3167 3165 3163 3161 3160 3158 3155 3152 3148 3144 3141 3139 3136 3131 3127 3124 3120 3116 3112 3109 3108 3107 3103 3099 3096 3094 3090 3086 3083 3080 3076 3073 3070 3067 3064 3059 3054 3049 3044 3039 3033 3027 3020 3012 3005 2998 2993 2987 2981 2975 2969 2963 2956 2949 2943 2937 2933 2928 2922 2917 2912 2907 2902
3200 3199 3197 3195 3193 3192 3190 3188 3187 3185 3183 3182 3180 3179 3178 3178 3177 3175 3174 3173 3172 3170 3168 3166 3165 3164 3163 3160 3157 3155 3152 3150 3146 3142 3138 3136 3133 3129 3124 3121 3117 3113 3110 3108 3106 3104 3101 3096 3093 3091 3088 3084 3080 3076 3073 3070 3067 3064 3061 3056 3050 3044 3038 3033 3027 3020 3013 3006 2999 2993 2988 2983 2978 2972 2966 2960 2953 2946 2939 2933 2927 2922 2917 2912 2907 2901 2896
3198 3196 3195 3193 3192 3190 3188 3187 3185 3184 3182 3180 3179 3179 3178 3177 3176 3175 3173 3172 3170 3168 3166 3164 3164 3162 3160 3158 3155 3152 3150 3147 3144 3140 3136 3133 3130 3125 3121 3118 3115 3112 3109 3107 3104 3101 3098 3094 3091 3087 3084 3081 3077 3073 3070 3067 3064 3060 3055 3049 3043 3038 3031 3025 3019 3014 3008 3002 2995 2989 2983 2978 2973 2967 2962 2955 2948 2942 2936 2930 2923 2917 2912 2907 2901 2896 2890
3196 3194 3193 3191 3190 3188 3187 3185 3184 3182 3181 3179 3178 3178 3177 3176 3175 3174 3172 3170 3168 3166 3163 3163 3162 3162 3159 3156 3153 3151 3148 3145 3142 3138 3135 3131 3127 3123 3119 3116 3113 3111 3108 3105 3102 3099 3095 3092 3089 3085 3080 3077 3074 3071 3067 3064 3060 3054 3047 3042 3037 3032 3026 3020 3014 3008 3003 2998 2992 2985 2979 2973 2968 2962 2956 2950 2943 2936 2931 2925 2920 2913 2907 2901 2896 2890 2885
3194 3193 3191 3189 3188 3186 3185 3183 3182 3181 3180 3179 3177 3176 3176 3175 3173 3172 3170 3168 3166 3164 3162 3161 3160 3159 3157 3153 3150 3147 3145 3142 3139 3137 3133 3129 3125 3122 3117 3114 3111 3109 3106 3102 3099 3096 3093 3090 3086 3082 3077 3074 3071 3067 3063 3059 3053 3045 3039 3035 3031 3027 3021 3015 3009 3003 2997 2992 2986 2980 2973 2968 2961 2955 2949 2944 2938 2930 2924 2918 2913 2908 2902 2896 2890 2884 2879
3192 3191 3189 3188 3186 3185 3183 3182 3180 3179 3178 3177 3176 3175 3174 3173 3172 3170 3168 3166 3164 3162 3161 3160 3158 3156 3154 3150 3147 3144 3141 3139 3137 3135 3131 3127 3123 3120 3116 3112 3109 3106 3103 3099 3096 3093 3091 3088 3083 3078 3074 3070 3066 3062 3058 3053 3046 3039 3033 3028 3025 3021 3015 3009 3003 2997 2991 2985 2980 2973 2967 2961 2955 2948 2942 2936 2931 2925 2918 2912 2906 2901 2895 2890 2884 2877 2872
3190 3188 3187 3186 3184 3183 3181 3180 3179 3178 3176 3175 3174 3173 3172 3172 3170 3168 3166 3164 3162 3160 3159 3158 3156 3153 3150 3148 3145 3142 3139 3136 3134 3132 3129 3126 3122 3118 3114 3111 3107 3104 3100 3097 3094 3091 3089 3085 3080 3074 3070 3065 3061 3056 3052 3047 3041 3035 3029 3023 3018 3014 3010 3004 2998 2992 2986 2980 2974 2968 2962 2956 2949 2942 2936 2929 2924 2919 2913 2908 2902 2896 2890 2884 2877 2871 2865
3188 3187 3185 3184 3182 3181 3180 3179 3178 3176 3175 3173 3172 3171 3171 3170 3168 3166 3164 3162 3160 3158 3156 3155 3153 3150 3148 3145 3142 3139 3137 3134 3131 3129 3127 3124 3120 3116 3113 3109 3106 3102 3099 3095 3092 3089 3085 3080 3075 3070 3065 3060 3055 3051 3046 3041 3035 3030 3025 3019 3014 3009 3004 2998 2992 2986 2980 2975 2968 2962 2956 2950 2943 2937 2930 2923 2917 2912 2907 2902 2896 2891 2884 2878 2872 2866 2861
3186 3185 3184 3182 3180 3179 3178 3177 3176 3174 3173 3171 3170 3169 3169 3167 3166 3163 3161 3160 3157 3155 3153 3151 3149 3147 3144 3142 3139 3136 3134 3131 3128 3126 3124 3121 3118 3114 3111 3107 3104 3101 3098 3095 3090 3086 3081 3076 3071 3066 3061 3056 3051 3046 3041 3035 3029 3024 3019 3014 3009 3003 2998 2992 2986 2981 2975 2969 2963 2956 2950 2943 2937 2930 2923 2915 2909 2904 2900 2895 2889 2884 2878 2873 2867 2862 2856
3184 3183 3182 3180 3179 3177 3176 3175 3173 3172 3170 3169 3168 3167 3166 3165 3163 3161 3159 3157 3155 3152 3150 3148 3146 3143 3141 3138 3136 3133 3131 3129 3126 3123 3121 3119 3116 3113 3109 3105 3101 3098 3096 3092 3088 3082 3077 3073 3068 3062 3056 3052 3048 3042 3036 3030 3025 3020 3015 3009 3004 2998 2993 2987 2981 2975 2969 2964 2957 2951 2944 2937 2930 2923 2916 2908 2901 2896 2891 2887 2882 2876 2871 2867 2862 2857 2852
3182 3181 3180 3178 3177 3175 3174 3173 3171 3169 3168 3167 3166 3165 3164 3163 3162 3160 3157 3155 3153 3150 3148 3146 3143 3140 3138 3136 3133 3131 3129 3127 3123 3120 3118 3117 3114 3111 3107 3103 3099 3095 3092 3088 3084 3079 3073 3068 3063 3057 3052 3047 3043 3038 3032 3026 3021 3015 3010 3005 2999 2994 2988 2982 2975 2969 2964 2958 2952 2945 2938 2931 2924 2917 2909 2902 2894 2888 2883 2879 2875 2870 2865 2861 2857 2852 2848
3180 3179 3178 3177 3175 3174 3172 3171 3169 3167 3166 3164 3164 3163 3163 3162 3160 3158 3155 3153 3150 3148 3146 3143 3141 3138 3136 3134 3131 3129 3127 3124 3121 3118 3116 3114 3112 3109 3105 3100 3096 3092 3088 3084 3080 3075 3069 3063 3058 3052 3047 3042 3038 3033 3027 3022 3016 3011 3005 2999 2994 2988 2983 2976 2970 2964 2957 2951 2945 2938 2931 2924 2917 2910 2903 2896 2889 2882 2876 2872 2869 2865 2860 2856 2852 2848 2843
3177 3176 3175 3175 3174 3172 3170 3169 3167 3165 3164 3162 3162 3161 3161 3159 3158 3156 3153 3150 3148 3146 3144 3141 3139 3136 3134 3132 3129 3127 3125 3122 3118 3115 3113 3111 3108 3105 3102 3097 3093 3088 3083 3079 3075 3071 3065 3059 3055 3050 3043 3037 3032 3028 3022 3017 3012 3006 3000 2993 2988 2982 2977 2970 2964 2958 2951 2944 2937 2930 2923 2916 2909 2902 2896 2889 2884 2877 2871 2865 2862 2859 2855 2850 2846 2842 2838